Regional Weather Roundup
Issued by NWS

Home | Current Version | Previous Version | Text Only | Print | Product List | Glossary Off
Versions: 1 2 3 4 5 6 7 8 9 10 11 12 13 14 15 16 17 18 19 20 21 22 23 24 25 26 27 28 29 30 31 32 33 34 35 36 37 38 39 40 41 42 43 44 45 46 47 48 49 50

000
ASUS45 KBOI 242010
RWRID
WEATHER ROUNDUP FOR IDAHO
NATIONAL WEATHER SERVICE BOISE ID
200 PM MDT FRI APR 24 2015

NOTE: "FAIR" INDICATES FEW OR NO CLOUDS BELOW 12000 FEET
WITH NO SIGNIFICANT WEATHER AND/OR OBSTRUCTIONS TO VISIBILITY

IDZ012-014-242100-
SOUTHWEST IDAHO


CITY           SKY/WX    TMP DP  RH WIND       PRES   REMARKS
BOISE          CLOUDY    53  41  63 NW10      29.76F
CALDWELL       CLOUDY    54  37  54 N9        29.79S
MOUNTAIN HOME  CLOUDY    54  38  54 W12G18    29.75F
$$

IDZ016-017-242100-
SOUTHCENTRAL IDAHO


CITY           SKY/WX    TMP DP  RH WIND       PRES   REMARKS
BURLEY         LGT RAIN  46  40  79 W15G21    29.73S
JEROME         LGT RAIN  45  41  86 SW15      29.75S
TWIN FALLS     LGT RAIN  48  38  68 W15       29.76S
$$

IDZ019>023-242100-
SOUTHEAST IDAHO


CITY           SKY/WX    TMP DP  RH WIND       PRES   REMARKS
IDAHO FALLS    PTSUNNY   63  36  36 SW17G30   29.65F
POCATELLO      PTSUNNY   57  39  51 W24       29.69F
REXBURG        PTSUNNY   62  33  33 SW18      29.63F
$$

IDZ006-010-011-018-031-032-242100-
CENTRAL IDAHO MOUNTAINS


CITY           SKY/WX    TMP DP  RH WIND       PRES   REMARKS
MCCALL         CLOUDY    39  34  82 VRB3      29.73F
HAILEY         LGT RAIN  43  37  81 NW6       29.73S
STANLEY          N/A     42  34  73 N5        29.71S
SALMON         CLOUDY    45  39  81 SW6       29.70S
CHALLIS        CLOUDY    46  38  73 VRB7      29.66S
$$

IDZ002-004-006-007-026-242100-
NORTHERN IDAHO


CITY           SKY/WX    TMP DP  RH WIND       PRES   REMARKS
LEWISTON       PTSUNNY   55  30  38 SW5       29.80F
LOWELL           N/A     48  41  76 CALM      29.85F
COEUR D`ALENE  CLOUDY    48  27  43 SW12      29.79F
MULLAN PASS    CLOUDY    36  20  52 MISG      29.73S
$$



USA.gov is the U.S. government's official web portal to all federal, state and local government web resources and services.